SILO ALERT LOG
| Silo ID | Alert Type | Alert Message | Silo Type | Points | Depth (mm) | Strength | Temperature (°C) | Humidity (%) | Height (mm) | Volume (㎥) | Weight (t) | Flag | Time |
|---|---|---|---|---|---|---|---|---|---|---|---|---|---|
| DJHNR01 | Humidity | 습도센서 측정값이 80% 초과 | 호퍼 | 471 | 4315 | 4899 | 4 | 99.9 | 11064 | 472.262 | 298.564 | 13 | 2024-01-14 04:39:33.000 |
| DJSSD01 | Humidity | 습도센서 측정값이 80% 초과 | 평 | 807 | 2575 | 4733 | 4.8 | 84.1 | 5504 | 766.123 | 484.343 | 0 | 2024-01-14 04:39:33.000 |
| DJSSD04 | Temperature | 온도센서 상태 이상 | 평 | 0 | 8200 | 0 | -999 | -999 | -120 | -16.702 | 0 | 31 | 2024-01-14 04:39:33.000 |
| DJSAD16 | Humidity | 습도센서 측정값이 80% 초과 | 평 | 94 | 6187 | 3433 | 4.2 | 80.4 | 1392 | 138.651 | 87.655 | 11 | 2024-01-14 04:39:33.000 |
| DJSAD08 | Humidity | 습도센서 측정값이 80% 초과 | 평 | 567 | 2322 | 4910 | 7 | 84 | 5257 | 748.064 | 472.926 | 12 | 2024-01-14 04:39:32.000 |
| DJHNR11 | Temperature | 온도센서 측정값이 0도 미만 | 호퍼 | 122 | 1931 | 3348 | -3.3 | 75.4 | 8448 | 128.272 | 81.093 | 11 | 2024-01-14 04:39:32.000 |
| DJSAD17 | Humidity | 습도센서 측정값이 80% 초과 | 평 | 440 | 3109 | 4828 | 3.6 | 81.6 | 4470 | 445.145 | 281.421 | 0 | 2024-01-14 04:39:31.000 |
| DJHNR14 | Temperature | 온도센서 측정값이 0도 미만 | 호퍼 | 36 | 3095 | 4495 | -3.9 | 74.3 | 7284 | 103.168 | 65.223 | 11 | 2024-01-14 04:39:31.000 |
| DJSSD11 | Temperature | 온도센서 측정값이 0도 미만 | 호퍼 | 450 | 7377 | 154 | -4.2 | 72 | 3852 | 29.166 | 15.895 | 0 | 2024-01-14 04:39:31.000 |
| DJDJD04 | Humidity | 습도센서 측정값이 80% 초과 | 평 | 283 | 4199 | 4462 | 2.7 | 82.2 | 3480 | 421.725 | 266.615 | 11 | 2024-01-14 04:39:31.000 |
| DJSSD09 | Temperature | 온도센서 측정값이 0도 미만 | 평 | 130 | 2884 | 3692 | -45.4 | 0 | 4795 | 667.487 | 421.985 | 11 | 2024-01-14 04:39:31.000 |
| DJSAD18 | Humidity | 습도센서 측정값이 80% 초과 | 평 | 120 | 1403 | 5761 | 4.4 | 80.8 | 6176 | 615.08 | 388.854 | 11 | 2024-01-14 04:39:30.000 |
| DJDJD01 | Temperature | 온도센서 측정값이 0도 미만 | 평 | 305 | 6796 | 5954 | -0.7 | 78.6 | 883 | 107.01 | 67.652 | 11 | 2024-01-14 04:39:30.000 |
| DJHNR13 | Temperature | 온도센서 측정값이 0도 미만 | 호퍼 | 14 | 2877 | 3080 | -3.4 | 71.5 | 7502 | 107.878 | 68.2 | 0 | 2024-01-14 04:39:30.000 |
| DJSSD12 | Temperature | 온도센서 상태 이상 | 호퍼 | 0 | 11350 | 0 | -999 | -999 | -120 | 0 | 0 | 31 | 2024-01-14 04:39:25.000 |
| DJHNR03 | Temperature | 온도센서 상태 이상 | 호퍼 | 0 | 15500 | 0 | -999 | -999 | -119 | 0 | 0 | 31 | 2024-01-14 04:39:24.000 |
| DJHNR12 | Temperature | 온도센서 측정값이 0도 미만 | 호퍼 | 0 | 10500 | 0 | -2.6 | 77.5 | -120 | 0 | 0 | 31 | 2024-01-14 04:39:23.000 |
| DJSAD01 | Humidity | 습도센서 측정값이 80% 초과 | 평 | 453 | 1498 | 7274 | 0.8 | 86 | 7281 | 301.448 | 190.576 | 0 | 2024-01-14 03:39:40.000 |
| DJSAD02 | Humidity | 습도센서 측정값이 80% 초과 | 평 | 387 | 1136 | 4253 | 1.5 | 86.5 | 7643 | 316.422 | 200.042 | 11 | 2024-01-14 03:39:39.000 |
| DJDJD03 | Humidity | 습도센서 측정값이 80% 초과 | 평 | 63 | 4300 | 5134 | 1.9 | 82.6 | 3379 | 409.485 | 258.877 | 0 | 2024-01-14 03:39:39.000 |
[첫 페이지] [9955] [9956] [9957] [9958] 9959 [9960] [9961] [9962] [9963] [마지막 페이지]